Terminal Aerodrome Forecast
Issued by NWS Kansas City/Pleasant Hill, MO

Home | Current Version | Previous Version | Text Only | Print | Product List | Glossary On
Versions: 1 2 3 4 5 6 7 8 9 10 11 12 13
000
FTUS43 KEAX 020520
TAFMCI
TAF
KMCI 020520Z 0206/0306 19009KT P6SM BKN250
     FM020900 19011KT P6SM VCTS BKN040CB
     FM021430 21014KT P6SM SCT040 BKN180
     FM030000 18009KT P6SM SCT120=

USA.gov is the U.S. government's official web portal to all federal, state and local government web resources and services.